Location: Kumla
(59.1265°N, 15.1401°E)
Time: 13:56:45
(UTC+01:00)

Vanguard 3 - Pass Details

Date: 12 December 2023
Orbit: 508 x 3239 km, 33.4° (Epoch: 03 March)

Event Time Altitude Azimuth Distance (km) Brightness Sun altitude
Rises 17:38:02 0° 190° (S) 7,139 12.3 -17.8°
Reaches altitude 10° 17:48:58 10° 162° (SSE) 5,706 11.4 -19.2°
Maximum altitude 17:52:27 11° 150° (SSE) 5,413 11.2 -19.6°
Drops below altitude 10° 17:55:42 10° 138° (SE) 5,261 11.0 -20.0°
Enters shadow 17:59:34 - 123° (ESE) 5,268 10.9 -20.5°
Sets 18:03:54 0° 108° (ESE) 5,539 - -21.0°
